Weather History for Worland, WY

Change the Weather History Date:

Tuesday, April 9, 2013

  Actual Average Record
Temperature  
Mean Temperature 20 °F 44 °F  
Max Temperature 28 °F 58 °F 82 °F (1977)
Min Temperature 11 °F 29 °F 11 °F (1975)
Degree Days  
Heating Degree Days 45 21  
Month to date heating degree days 194 201  
Since 1 July heating degree days 6649 7087  
Cooling Degree Days 0 0  
Month to date cooling degree days 0 0  
Year to date cooling degree days 0 0  
Moisture  
Dew Point 14 °F    
Average Humidity 76    
Maximum Humidity 92    
Minimum Humidity 60    
Precipitation  
Precipitation 0.05 in 0.02 in 0.89 in (2004)
Month to date precipitation 0.24 0.17  
Year to date precipitation 0.83 1.05  
Sea Level Pressure  
Sea Level Pressure 30.27 in    
Wind  
Wind Speed 10 mph (NNW)    
Max Wind Speed 20 mph    
Max Gust Speed 25 mph    
Visibility 4 miles    
Events Fog , Snow    
T = Trace of Precipitation, MM = Missing Value Source: NWS Daily Summary

Daily Weather History Graph

Daily Weather History Graph

Search for Another Location

Airport:

Trip Planner

Search our weather history database for the weather conditions in past years. The results will help you decide how hot, cold, wet, or windy it might be!

Date:

Astronomy

Apr. 09, 2013 Rise Set
Actual Time 6:38 AM MDT 7:48 PM MDT
Civil Twilight 6:08 AM MDT 8:18 PM MDT
Nautical Twilight 5:33 AM MDT 8:54 PM MDT
Astronomical Twilight 4:55 AM MDT 9:31 PM MDT
Moon 6:03 AM MDT (4/9) 7:27 PM MDT (4/9)
Length of Visible Light 14h 09m
Length of Day
13h 10m
Waning Crescent, 0% of the Moon is Illuminated
Apr 9
Waning Crescent
Apr 10
New
Apr 18
First Quarter
Apr 25
Full
May 2
Last Quarter

Hourly Weather History & Observations

Time (MDT) Temp. Windchill Dew Point Humidity Pressure Visibility Wind Dir Wind Speed Gust Speed Precip Events Conditions
12:25 AM 19.4 °F 6.0 °F 15.8 °F 86% 30.11 in 1.0 mi NW 13.8 mph 19.6 mph 0.01 in Snow Light Snow
12:37 AM 19.4 °F 7.2 °F 15.8 °F 86% 30.11 in 0.8 mi NNW 11.5 mph - 0.01 in Snow Light Snow
12:51 AM 19.4 °F 6.0 °F 15.8 °F 86% 30.12 in 1.0 mi NNW 13.8 mph - 0.01 in Snow Light Snow
12:53 AM 19.0 °F 6.8 °F 15.1 °F 85% 30.27 in 1.0 mi NW 11.5 mph - 0.01 in Snow Light Snow
1:08 AM 19.4 °F 7.9 °F 15.8 °F 86% 30.13 in 0.8 mi NNW 10.4 mph - 0.00 in Snow Light Snow
1:53 AM 18.0 °F 5.4 °F 15.1 °F 88% 30.29 in 1.0 mi NNW 11.5 mph - 0.02 in Snow Light Snow
2:05 AM 17.6 °F 3.2 °F 15.8 °F 93% 30.13 in 0.8 mi NNW 15.0 mph 21.9 mph 0.00 in Snow Light Snow
2:19 AM 17.6 °F 4.3 °F 15.8 °F 93% 30.13 in 0.5 mi NNW 12.7 mph - 0.01 in Fog , Snow Snow
2:46 AM 17.6 °F 2.7 °F 15.8 °F 93% 30.13 in 1.0 mi NNW 16.1 mph - 0.02 in Snow Light Snow
2:53 AM 18.0 °F 4.2 °F 15.1 °F 88% 30.30 in 1.0 mi NW 13.8 mph - 0.02 in Snow Light Snow
3:12 AM 17.6 °F 2.7 °F 15.8 °F 93% 30.13 in 0.8 mi NNW 16.1 mph 23.0 mph 0.00 in Snow Light Snow
3:22 AM 17.6 °F 2.7 °F 15.8 °F 93% 30.13 in 1.0 mi NW 16.1 mph - 0.00 in Snow Light Snow
3:53 AM 18.0 °F 6.1 °F 15.1 °F 88% 30.30 in 1.2 mi NW 10.4 mph - 0.00 in Snow Light Snow
4:12 AM 17.6 °F 4.3 °F 15.8 °F 93% 30.14 in 1.2 mi NW 12.7 mph - 0.00 in Snow Light Snow
4:50 AM 17.6 °F 3.7 °F 14.0 °F 86% 30.16 in 1.2 mi NW 13.8 mph - 0.01 in Snow Light Snow
4:53 AM 17.1 °F 3.6 °F 14.0 °F 88% 30.32 in 1.2 mi NW 12.7 mph - 0.01 in Snow Light Snow
5:01 AM 17.6 °F 3.2 °F 14.0 °F 86% 30.16 in 1.5 mi NW 15.0 mph - 0.00 in Snow Light Snow
5:16 AM 17.6 °F 4.3 °F 12.2 °F 79% 30.16 in 2.5 mi NW 12.7 mph - 0.00 in Snow Light Snow
5:31 AM 17.6 °F 3.7 °F 12.2 °F 79% 30.17 in 3.0 mi NW 13.8 mph - 0.00 in Snow Light Snow
5:38 AM 17.6 °F 3.2 °F 12.2 °F 79% 30.17 in 2.5 mi NW 15.0 mph - 0.00 in Snow Light Snow
5:53 AM 17.1 °F 2.5 °F 12.9 °F 84% 30.34 in 2.5 mi NW 15.0 mph - 0.00 in Snow Light Snow
6:03 AM 17.6 °F 3.7 °F 12.2 °F 79% 30.17 in 2.5 mi NW 13.8 mph - 0.00 in Snow Light Snow
6:13 AM 17.6 °F 3.2 °F 12.2 °F 79% 30.17 in 4.0 mi NW 15.0 mph - 0.00 in Snow Light Snow
6:36 AM 17.6 °F 3.7 °F 12.2 °F 79% 30.18 in 4.0 mi NW 13.8 mph - 0.00 in Snow Light Snow
6:53 AM 17.1 °F 3.0 °F 12.0 °F 81% 30.37 in 3.0 mi NNW 13.8 mph - 0.00 in Snow Light Snow
7:15 AM 17.6 °F 2.7 °F 12.2 °F 79% 30.21 in 2.0 mi NW 16.1 mph - 0.00 in Snow Light Snow
7:22 AM 17.6 °F 1.7 °F 12.2 °F 79% 30.22 in 1.2 mi NW 18.4 mph - 0.00 in Snow Light Snow
7:32 AM 17.6 °F 1.7 °F 12.2 °F 79% 30.22 in 1.0 mi NW 18.4 mph - 0.00 in Snow Light Snow
7:53 AM 17.1 °F 1.5 °F 12.0 °F 81% 30.41 in 1.2 mi NW 17.3 mph 25.3 mph 0.00 in Snow Light Snow
8:11 AM 17.6 °F 2.2 °F 12.2 °F 79% 30.24 in 0.8 mi NNW 17.3 mph - 0.00 in Snow Light Snow
8:27 AM 17.6 °F 2.7 °F 12.2 °F 79% 30.25 in 1.0 mi NW 16.1 mph - 0.00 in Snow Light Snow
8:41 AM 17.6 °F 3.2 °F 12.2 °F 79% 30.25 in 0.8 mi NNW 15.0 mph - 0.00 in Snow Light Snow
8:53 AM 17.1 °F 2.5 °F 12.9 °F 84% 30.43 in 0.8 mi NNW 15.0 mph - 0.00 in Snow Light Snow
9:06 AM 17.6 °F 4.3 °F 14.0 °F 86% 30.26 in 0.5 mi NNW 12.7 mph - 0.00 in Fog , Snow Light Snow
9:46 AM 17.6 °F 2.7 °F 14.0 °F 86% 30.26 in 0.8 mi NNW 16.1 mph - 0.00 in Snow Light Snow
9:53 AM 19.0 °F 5.0 °F 14.0 °F 81% 30.44 in 1.0 mi NNW 15.0 mph - 0.00 in Snow Light Snow
10:12 AM 19.4 °F 7.2 °F 12.2 °F 74% 30.28 in 2.5 mi NNW 11.5 mph - 0.00 in Snow Light Snow
10:22 AM 19.4 °F 7.2 °F 12.2 °F 74% 30.28 in 4.0 mi NNW 11.5 mph - 0.00 in   Haze
10:53 AM 19.9 °F 6.2 °F 12.0 °F 71% 30.44 in 9.0 mi NNW 15.0 mph - 0.00 in   Overcast
11:53 AM 21.9 °F 9.8 °F 12.0 °F 66% 30.43 in 10.0 mi North 12.7 mph - N/A   Overcast
12:53 PM 24.1 °F 12.0 °F 14.0 °F 65% 30.41 in 10.0 mi NW 13.8 mph - N/A   Overcast
1:37 PM 23.0 °F 11.1 °F 14.0 °F 68% 30.24 in 2.5 mi NNW 12.7 mph - 0.00 in Snow Light Snow
1:46 PM 24.8 °F 15.3 °F 14.0 °F 64% 30.24 in 5.0 mi North 9.2 mph - 0.00 in   Haze
1:53 PM 24.1 °F 14.4 °F 12.9 °F 62% 30.40 in 8.0 mi North 9.2 mph - 0.00 in   Overcast
2:15 PM 24.8 °F 16.1 °F 14.0 °F 64% 30.24 in 2.5 mi NNW 8.1 mph - 0.00 in Snow Light Snow
2:25 PM 24.8 °F 16.1 °F 14.0 °F 64% 30.24 in 5.0 mi NNE 8.1 mph - 0.00 in Snow Light Snow
2:36 PM 26.6 °F 15.7 °F 15.8 °F 64% 30.24 in 6.0 mi NNW 12.7 mph - 0.00 in Snow Light Snow
2:53 PM 26.1 °F 15.6 °F 15.1 °F 63% 30.39 in 10.0 mi NNW 11.5 mph - 0.00 in   Overcast
3:53 PM 25.0 °F 18.1 °F 14.0 °F 63% 30.39 in 10.0 mi ENE 5.8 mph - N/A   Overcast
4:53 PM 25.0 °F 18.1 °F 15.1 °F 66% 30.39 in 10.0 mi ESE 5.8 mph - N/A   Overcast
5:41 PM 24.8 °F 19.1 °F 15.8 °F 69% 30.24 in 2.5 mi SE 4.6 mph - 0.00 in Snow Light Snow
5:51 PM 24.8 °F 20.5 °F 17.6 °F 74% 30.25 in 1.8 mi SE 3.5 mph - 0.00 in Snow Light Snow
5:53 PM 24.1 °F 19.7 °F 17.1 °F 75% 30.41 in 1.8 mi SE 3.5 mph - 0.00 in Snow Light Snow
6:48 PM 24.8 °F 15.3 °F 19.4 °F 80% 30.26 in 1.8 mi South 9.2 mph - 0.00 in Snow Light Snow
6:53 PM 23.0 °F 12.4 °F 19.9 °F 88% 30.42 in 2.0 mi South 10.4 mph - 0.00 in Snow Light Snow
7:11 PM 23.0 °F 13.1 °F 19.4 °F 86% 30.25 in 4.0 mi South 9.2 mph - 0.00 in Snow Light Snow
7:53 PM 21.9 °F 11.7 °F 19.0 °F 89% 30.42 in 10.0 mi SSE 9.2 mph - 0.00 in   Overcast
8:53 PM 21.9 °F 11.7 °F 18.0 °F 85% 30.42 in 10.0 mi SSE 9.2 mph - N/A   Overcast
9:53 PM 23.0 °F 15.8 °F 15.1 °F 72% 30.42 in 10.0 mi WNW 5.8 mph - N/A   Scattered Clouds
10:53 PM 17.1 °F - 10.9 °F 77% 30.43 in 10.0 mi Calm Calm - N/A   Mostly Cloudy
11:53 PM 17.1 °F - 12.0 °F 81% 30.41 in 10.0 mi Calm Calm - N/A   Overcast